Content
SEND FEEDBACK

Daily
Averages
Monthly
Summary
United States of America

LINCOLN, ILLINOIS


Home > North America > United States > Illinois
Elevation: 555 feet     Latitude: 40 09N     Longitude: 089 24W

WEATHER
 
SELECT A DAY
Number of Records: 324,616;   Date Range: 9/6/01 - 8/25/14
 
SHARE

PRINT THIS DATA

[ ← Previous Day ]
WEATHER ALMANAC - JANUARY 1, 2013
[ Next Day → ]
[ °C ]   °F
Weather ElementAverageHighLow
Temperature19.9 °F24.8 °F (1:55 pm)10.6 °F (11:55 pm)
Dewpoint13.3 °F19.4 °F (3:55 am)6.8 °F (11:55 pm)
Humidity75.9 %86 % (3:55 am)62 % (12:15 pm)
Barometer30.20 in30.26 in (10:15 am)30.13 in (12:35 am)
Wind Speed4.9 mph9.2 mph (12:55 am)
Weather ElementAverage
Visibility10 mi
Wind DirectionWNW (277.6 °)

Weather ElementTotal
Precipitation---
Heating Degree Days47.3 (Base 65)
Averaged from 71 records on January 1, 2013
WEATHER CONDITIONS BREAKOUT
WIND DIRECTION BREAKOUT
WEATHER BY HOUR - JANUARY 1, 2013
[ °C ]   °F
Local TimeTemperatureDewpointHumidityBarometerVisibilityWind DirectionWind SpeedGust SpeedPrecipitationEventsConditions
12:35 AM23.0 °F18.1 °F82 %30.13 in10.0 miNorth (350°)8.1 mphOvercast
12:55 AM23.0 °F17.6 °F80 %30.13 in10.0 miNorth (350°)9.2 mphOvercast
1:15 AM23.0 °F18.1 °F82 %30.14 in10.0 miNorth (350°)6.9 mphOvercast
1:35 AM23.0 °F18.1 °F82 %30.13 in10.0 miNorth (350°)8.1 mphOvercast
1:55 AM23.0 °F18.1 °F82 %30.14 in10.0 miNorth (350°)5.8 mphOvercast
2:15 AM23.0 °F18.3 °F82 %30.14 in10.0 miNorth (360°)5.8 mphOvercast
2:35 AM23.0 °F18.3 °F82 %30.16 in10.0 miNW (320°)3.5 mphOvercast
2:55 AM23.0 °F18.1 °F82 %30.16 in10.0 miNNW (340°)3.5 mphOvercast
3:15 AM23.0 °F18.3 °F82 %30.14 in10.0 miNorth (350°)8.1 mphOvercast
3:35 AM23.0 °F18.5 °F83 %30.15 in10.0 miNNW (340°)5.8 mphOvercast
3:55 AM23.0 °F19.4 °F86 %30.15 in10.0 miNNW (330°)3.5 mphOvercast
4:15 AM23.0 °F18.5 °F83 %30.15 in10.0 miNNW (340°)3.5 mphOvercast
4:35 AM23.0 °F18.3 °F82 %30.16 in10.0 miNNW (340°)6.9 mphOvercast
4:55 AM23.0 °F18.5 °F83 %30.17 in10.0 miNNW (340°)5.8 mphOvercast
5:15 AM23.0 °F18.1 °F82 %30.17 in10.0 miNNW (340°)4.6 mphOvercast
5:35 AM23.0 °F18.1 °F82 %30.17 in10.0 miNNW (340°)5.8 mphOvercast
5:55 AM21.9 °F17.4 °F83 %30.17 in10.0 miNNW (340°)4.6 mphMostly Cloudy
6:15 AM21.0 °F16.7 °F83 %30.17 in10.0 miNNW (340°)3.5 mphScattered Clouds
6:35 AM20.7 °F16.2 °F83 %30.18 in10.0 miNNW (340°)4.6 mphMostly Cloudy
6:55 AM19.9 °F15.8 °F84 %30.18 in10.0 miNorth (350°)4.6 mphScattered Clouds
7:15 AM18.3 °F14.4 °F85 %30.17 in10.0 miNorth (360°)5.8 mphClear
7:35 AM18.0 °F14.4 °F86 %30.13 in10.0 miNorth (10°)8.1 mphClear
7:55 AM17.8 °F13.8 °F84 %30.17 in10.0 miCalmClear
8:15 AM19.4 °F14.0 °F80 %30.22 in10.0 miCalmClear
8:35 AM19.8 °F13.5 °F77 %30.22 in10.0 miNorth (350°)3.5 mphClear
8:55 AM20.3 °F13.6 °F75 %30.23 in10.0 miNorth (360°)6.9 mphClear
9:15 AM19.6 °F13.5 °F77 %30.23 in10.0 miNNW (330°)3.5 mphClear
9:35 AM19.4 °F13.5 °F78 %30.24 in10.0 miNW (320°)4.6 mphClear
9:55 AM21.0 °F13.8 °F74 %30.25 in10.0 miNNW (340°)6.9 mphClear
10:15 AM21.4 °F13.3 °F71 %30.26 in10.0 miNNW (330°)5.8 mphClear
10:35 AM21.9 °F13.5 °F70 %30.26 in10.0 miNNW (340°)5.8 mphClear
10:55 AM21.9 °F13.3 °F69 %30.22 in10.0 miNNW (330°)6.9 mphClear
11:15 AM22.5 °F13.3 °F68 %30.22 in10.0 miNNW (340°)8.1 mphClear
11:35 AM22.6 °F11.8 °F63 %30.22 in10.0 miNNW (340°)8.1 mphClear
11:55 AM23.4 °F13.3 °F65 %30.23 in10.0 miNNW (330°)6.9 mphClear
12:15 PM23.5 °F12.4 °F62 %30.22 in10.0 miNNW (340°)8.1 mphClear
12:35 PM23.4 °F12.2 °F62 %30.21 in10.0 miNNW (340°)9.2 mphClear
12:55 PM23.0 °F14.0 °F68 %30.19 in10.0 miNW (320°)8.1 mphClear
1:15 PM23.5 °F14.2 °F67 %30.19 in10.0 miNW (310°)8.1 mphClear
1:35 PM23.7 °F14.4 °F67 %30.20 in10.0 miNW (310°)6.9 mphClear
1:55 PM24.8 °F14.0 °F64 %30.19 in10.0 miWNW (300°)6.9 mphClear
2:15 PM23.7 °F13.6 °F65 %30.19 in10.0 miNW (320°)6.9 mphClear
2:35 PM23.5 °F12.9 °F64 %30.18 in10.0 miNW (310°)5.8 mphClear
2:55 PM23.5 °F13.5 °F65 %30.19 in10.0 miNW (310°)6.9 mphClear
3:15 PM23.2 °F13.1 °F65 %30.20 in10.0 miNW (310°)4.6 mphClear
3:35 PM22.8 °F12.2 °F64 %30.20 in10.0 miWNW (300°)5.8 mphClear
3:55 PM21.2 °F12.2 °F68 %30.20 in10.0 miWNW (290°)4.6 mphClear
4:15 PM21.0 °F12.2 °F69 %30.20 in10.0 miWNW (300°)3.5 mphClear
4:35 PM20.1 °F11.8 °F70 %30.21 in10.0 miWNW (300°)5.8 mphClear
4:55 PM19.8 °F10.9 °F69 %30.21 in10.0 miWNW (300°)5.8 mphClear
5:15 PM19.4 °F10.0 °F67 %30.22 in10.0 miWNW (300°)4.6 mphClear
5:35 PM18.9 °F9.7 °F67 %30.23 in10.0 miWNW (290°)4.6 mphClear
5:55 PM18.5 °F9.7 °F68 %30.23 in10.0 miWNW (290°)4.6 mphClear
6:15 PM18.1 °F9.5 °F69 %30.22 in10.0 miWNW (300°)3.5 mphClear
6:35 PM17.6 °F9.5 °F71 %30.22 in10.0 miWNW (290°)4.6 mphClear
6:55 PM17.6 °F9.5 °F71 %30.23 in7.0 miWNW (290°)3.5 mphClear
7:15 PM17.2 °F9.9 °F73 %30.23 in10.0 miWest (280°)4.6 mphClear
7:35 PM16.9 °F10.0 °F75 %30.24 in10.0 miWNW (290°)4.6 mphClear
7:55 PM16.2 °F10.0 °F77 %30.23 in10.0 miWNW (290°)3.5 mphClear
8:15 PM15.1 °F9.5 °F79 %30.23 in10.0 miWNW (300°)3.5 mphClear
8:35 PM14.0 °F9.1 °F81 %30.22 in10.0 miWNW (300°)3.5 mphClear
8:55 PM13.1 °F8.6 °F82 %30.22 in10.0 miCalmClear
9:15 PM12.9 °F8.6 °F83 %30.22 in10.0 miCalmClear
9:35 PM12.9 °F8.6 °F83 %30.23 in10.0 miCalmClear
9:55 PM12.7 °F8.4 °F83 %30.24 in10.0 miCalmClear
10:15 PM12.7 °F8.4 °F83 %30.23 in10.0 miWNW (290°)3.5 mphClear
10:35 PM12.6 °F8.2 °F83 %30.24 in10.0 miCalmClear
10:55 PM12.2 °F7.7 °F82 %30.23 in10.0 miNW (310°)3.5 mphClear
11:15 PM11.8 °F7.5 °F83 %30.24 in10.0 miWNW (290°)3.5 mphClear
11:35 PM11.8 °F7.7 °F83 %30.22 in10.0 miCalmClear
11:55 PM10.6 °F6.8 °F85 %30.23 in10.0 miCalmClear
Hourly data recorded from KAAA, located miles away from Lincoln, Illinois







STORIES FROM OUR PARTNERS